EZY24YG EGNM-EGAA

Flight info

Callsign EZY24YG
Flight time N/A
Altitude 22000
Route NELSA DCT CROFT Y70 KOLID L70 GUNTU Z196 DIGMA M146 IPSET P6 BELZU
Aircraft A320/M-SDE3FGHIRWY/LB1

Departure

Time 2026-04-30 22:47
Airport Leeds Bradford Airport (EGNM)

Arrival

Time N/A
Airport Belfast International Airport (EGAA)
Time Latitude Longitude Altitude Speed Heading
2026-04-30 22:17 53.86882 -1.65690 665 ft 0 kts
2026-04-30 22:38 53.86867 -1.65690 665 ft 4 kts
2026-04-30 22:38 53.86822 -1.65698 662 ft 4 kts 50°
2026-04-30 22:39 53.86817 -1.65732 664 ft 4 kts 88°
2026-04-30 22:39 53.86812 -1.65850 663 ft 1 kts 91°
2026-04-30 22:43 53.86797 -1.65776 664 ft 9 kts 140°
2026-04-30 22:43 53.86733 -1.65478 664 ft 17 kts 109°
2026-04-30 22:44 53.86517 -1.65439 666 ft 12 kts 182°
2026-04-30 22:45 53.86376 -1.65449 677 ft 13 kts 182°
2026-04-30 22:45 53.86237 -1.65509 680 ft 3 kts 287°
2026-04-30 22:46 53.86244 -1.65523 680 ft 0 kts 314°
2026-04-30 22:47 53.86666 -1.66166 666 ft 110 kts 317°
2026-04-30 22:47 53.88142 -1.68313 1562 ft 144 kts 314°
2026-04-30 22:48 53.89478 -1.71360 2482 ft 180 kts 280°
2026-04-30 22:49 53.89337 -1.78540 3558 ft 237 kts 251°
2026-04-30 22:49 53.86445 -1.85965 5963 ft 262 kts 226°
2026-04-30 22:50 53.84476 -1.97603 7249 ft 294 kts 295°
2026-04-30 22:51 53.86130 -2.03814 7250 ft 289 kts 277°
2026-04-30 22:51 53.86300 -2.10583 7252 ft 286 kts 266°
2026-04-30 22:52 53.86298 -2.13940 7241 ft 284 kts 262°
2026-04-30 22:52 53.84992 -2.20049 8185 ft 277 kts 230°
2026-04-30 22:53 53.82259 -2.24613 10122 ft 279 kts 218°
2026-04-30 22:53 53.79331 -2.29015 11855 ft 284 kts 218°
2026-04-30 22:53 53.77865 -2.31211 12720 ft 286 kts 218°
2026-04-30 22:54 53.74855 -2.35723 14393 ft 292 kts 217°
2026-04-30 22:55 53.70223 -2.42655 16570 ft 302 kts 217°
2026-04-30 22:55 53.67037 -2.47405 17998 ft 310 kts 217°
2026-04-30 22:56 53.63819 -2.52365 19300 ft 319 kts 223°
2026-04-30 22:56 53.60574 -2.62515 21235 ft 337 kts 241°
2026-04-30 22:57 53.58778 -2.69865 22134 ft 341 kts 240°
2026-04-30 22:57 53.57613 -2.78136 22202 ft 392 kts 261°
2026-04-30 22:58 53.57985 -2.87674 22200 ft 415 kts 269°
2026-04-30 22:59 53.58707 -3.02210 22191 ft 416 kts 269°
2026-04-30 22:59 53.59435 -3.16753 22184 ft 418 kts 273°